Location: Newark
(45.2500°N, 7.5833°E)
Time: 01:53:03
(UTC+00:00)

Vanguard 3 - Pass Details

Date: 03 February 2020
Orbit: 508 x 3263 km, 33.3° (Epoch: 21 February)

Event Time Altitude Azimuth Distance (km) Brightness Sun altitude
Rises 17:52:51 0° 267° (W) 6,775 13.8 -13.3°
Reaches altitude 10° 17:57:15 10° 263° (W) 5,962 13.0 -14.0°
Maximum altitude 18:15:45 53° 195° (SSW) 3,705 10.5 -17.3°
Drops below altitude 10° 18:32:06 10° 126° (SE) 5,322 10.8 -20.1°
Enters shadow 18:32:09 10° 126° (SE) 5,331 10.8 -20.1°
Sets 18:35:46 0° 121° (ESE) 6,034 - -20.8°
